Time,TemperatureF,DewpointF,PressureIn,WindDirection,WindDirectionDegrees,WindSpeedMPH,WindSpeedGustMPH,Humidity,HourlyPrecipIn,Conditions,Clouds,dailyrainin,SoftwareType,DateUTC
2013-02-27 00:00:00,52.0,49.4,29.74,WSW,248,0.0,0.0,91,0.00,,,0.00,LWC V2.00 B2112,2013-02-27 05:00:00,
2013-02-27 00:10:00,52.0,49.4,29.74,WSW,248,0.0,0.0,91,0.00,,,0.00,LWC V2.00 B2112,2013-02-27 05:10:00,
2013-02-27 00:20:00,52.0,49.4,29.74,WSW,248,0.0,0.0,91,0.00,,,0.00,LWC V2.00 B2112,2013-02-27 05:20:00,
2013-02-27 00:30:00,52.0,49.4,29.74,WSW,248,0.0,0.0,91,0.00,,,0.00,LWC V2.00 B2112,2013-02-27 05:30:00,
2013-02-27 00:40:00,52.0,49.4,29.74,WSW,248,0.0,0.0,91,0.00,,,0.00,LWC V2.00 B2112,2013-02-27 05:40:00,
2013-02-27 00:50:00,48.6,46.3,29.74,WSW,248,0.0,0.0,92,0.00,,,0.00,LWC V2.00 B2112,2013-02-27 05:50:00,
2013-02-27 01:00:00,48.6,46.3,29.74,WSW,248,0.0,0.0,92,0.00,,,0.00,LWC V2.00 B2112,2013-02-27 06:00:00,
2013-02-27 01:10:00,48.6,46.3,29.74,WSW,248,0.0,0.0,92,0.00,,,0.00,LWC V2.00 B2112,2013-02-27 06:10:00,
2013-02-27 01:20:00,48.6,46.3,29.74,WSW,248,0.0,0.0,92,0.00,,,0.00,LWC V2.00 B2112,2013-02-27 06:20:00,
2013-02-27 01:30:00,48.6,46.3,29.74,WSW,248,0.0,0.0,92,0.00,,,0.00,LWC V2.00 B2112,2013-02-27 06:30:00,
2013-02-27 01:40:00,48.6,46.3,29.74,WSW,248,0.0,0.0,92,0.00,,,0.00,LWC V2.00 B2112,2013-02-27 06:40:00,
2013-02-27 01:50:00,46.2,44.3,29.75,WSW,248,0.0,0.0,93,0.00,,,0.00,LWC V2.00 B2112,2013-02-27 06:50:00,
2013-02-27 02:00:00,46.2,44.3,29.75,WSW,248,0.0,0.0,93,0.00,,,0.00,LWC V2.00 B2112,2013-02-27 07:00:00,
2013-02-27 02:10:00,46.2,44.3,29.75,WSW,248,0.0,0.0,93,0.00,,,0.00,LWC V2.00 B2112,2013-02-27 07:10:00,
2013-02-27 02:20:00,46.2,44.3,29.75,WSW,248,0.0,0.0,93,0.00,,,0.00,LWC V2.00 B2112,2013-02-27 07:20:00,
2013-02-27 02:30:00,46.2,44.3,29.75,WSW,248,0.0,0.0,93,0.00,,,0.00,LWC V2.00 B2112,2013-02-27 07:30:00,
2013-02-27 02:40:00,46.2,44.3,29.75,WSW,248,0.0,0.0,93,0.00,,,0.00,LWC V2.00 B2112,2013-02-27 07:40:00,
2013-02-27 02:50:00,44.6,42.7,29.75,SSW,202,0.0,0.0,93,0.00,,,0.00,LWC V2.00 B2112,2013-02-27 07:50:00,
2013-02-27 03:00:00,44.6,42.7,29.75,SSW,202,0.0,0.0,93,0.00,,,0.00,LWC V2.00 B2112,2013-02-27 08:00:00,
2013-02-27 03:10:00,44.6,42.7,29.75,SSW,202,0.0,0.0,93,0.00,,,0.00,LWC V2.00 B2112,2013-02-27 08:10:00,
2013-02-27 03:20:00,44.6,42.7,29.75,SSW,202,0.0,0.0,93,0.00,,,0.00,LWC V2.00 B2112,2013-02-27 08:20:00,
2013-02-27 03:30:00,44.6,42.7,29.75,SSW,202,0.0,0.0,93,0.00,,,0.00,LWC V2.00 B2112,2013-02-27 08:30:00,
2013-02-27 03:40:00,44.6,42.7,29.75,SSW,202,0.0,0.0,93,0.00,,,0.00,LWC V2.00 B2112,2013-02-27 08:40:00,
2013-02-27 03:50:00,45.3,43.7,29.75,SW,225,0.6,0.6,94,0.00,,,0.00,LWC V2.00 B2112,2013-02-27 08:50:00,
2013-02-27 04:00:00,45.3,43.7,29.75,SW,225,0.6,0.6,94,0.00,,,0.00,LWC V2.00 B2112,2013-02-27 09:00:00,
2013-02-27 04:10:00,45.3,43.7,29.75,SW,225,0.6,0.6,94,0.00,,,0.00,LWC V2.00 B2112,2013-02-27 09:10:00,
2013-02-27 04:20:00,45.3,43.7,29.75,SW,225,0.6,0.6,94,0.00,,,0.00,LWC V2.00 B2112,2013-02-27 09:20:00,
2013-02-27 04:30:00,45.3,43.7,29.75,SW,225,0.6,0.6,94,0.00,,,0.00,LWC V2.00 B2112,2013-02-27 09:30:00,
2013-02-27 04:40:00,45.3,43.7,29.75,SW,225,0.6,0.6,94,0.00,,,0.00,LWC V2.00 B2112,2013-02-27 09:40:00,
2013-02-27 04:50:00,43.3,41.5,29.75,SSW,202,0.0,0.0,93,0.00,,,0.00,LWC V2.00 B2112,2013-02-27 09:50:00,
2013-02-27 05:00:00,43.3,41.5,29.75,SSW,202,0.0,0.0,93,0.00,,,0.00,LWC V2.00 B2112,2013-02-27 10:00:00,
2013-02-27 05:10:00,43.3,41.5,29.75,SSW,202,0.0,0.0,93,0.00,,,0.00,LWC V2.00 B2112,2013-02-27 10:10:00,
2013-02-27 05:20:00,43.3,41.5,29.75,SSW,202,0.0,0.0,93,0.00,,,0.00,LWC V2.00 B2112,2013-02-27 10:20:00,
2013-02-27 05:30:00,43.3,41.5,29.75,SSW,202,0.0,0.0,93,0.00,,,0.00,LWC V2.00 B2112,2013-02-27 10:30:00,
2013-02-27 05:40:00,43.3,41.5,29.75,SSW,202,0.0,0.0,93,0.00,,,0.00,LWC V2.00 B2112,2013-02-27 10:40:00,
2013-02-27 05:50:00,44.4,43.1,29.78,WSW,248,0.9,0.9,95,0.00,,,0.00,LWC V2.00 B2112,2013-02-27 10:50:00,
2013-02-27 06:00:00,44.4,43.1,29.78,WSW,248,0.9,0.9,95,0.00,,,0.00,LWC V2.00 B2112,2013-02-27 11:00:00,
2013-02-27 06:10:00,44.4,43.1,29.78,WSW,248,0.9,0.9,95,0.00,,,0.00,LWC V2.00 B2112,2013-02-27 11:10:00,
2013-02-27 06:20:00,44.4,43.1,29.78,WSW,248,0.9,0.9,95,0.00,,,0.00,LWC V2.00 B2112,2013-02-27 11:20:00,
2013-02-27 06:30:00,44.4,43.1,29.78,WSW,248,0.9,0.9,95,0.00,,,0.00,LWC V2.00 B2112,2013-02-27 11:30:00,
2013-02-27 06:40:00,44.4,43.1,29.78,WSW,248,0.9,0.9,95,0.00,,,0.00,LWC V2.00 B2112,2013-02-27 11:40:00,
2013-02-27 06:50:00,44.4,42.8,29.81,SW,225,0.4,0.4,94,0.00,,,0.00,LWC V2.00 B2112,2013-02-27 11:50:00,
2013-02-27 07:00:00,44.4,42.8,29.81,SW,225,0.4,0.4,94,0.00,,,0.00,LWC V2.00 B2112,2013-02-27 12:00:00,
2013-02-27 07:10:00,44.4,42.8,29.81,SW,225,0.4,0.4,94,0.00,,,0.00,LWC V2.00 B2112,2013-02-27 12:10:00,
2013-02-27 07:20:00,44.4,42.8,29.81,SW,225,0.4,0.4,94,0.00,,,0.00,LWC V2.00 B2112,2013-02-27 12:20:00,
2013-02-27 07:30:00,44.4,42.8,29.81,SW,225,0.4,0.4,94,0.00,,,0.00,LWC V2.00 B2112,2013-02-27 12:30:00,
2013-02-27 07:40:00,44.4,42.8,29.81,SW,225,0.4,0.4,94,0.00,,,0.00,LWC V2.00 B2112,2013-02-27 12:40:00,
2013-02-27 07:50:00,44.4,42.5,29.85,WNW,292,0.0,0.0,93,0.00,,,0.00,LWC V2.00 B2112,2013-02-27 12:50:00,
2013-02-27 08:00:00,44.4,42.5,29.85,WNW,292,0.0,0.0,93,0.00,,,0.00,LWC V2.00 B2112,2013-02-27 13:00:00,
2013-02-27 08:10:00,44.4,42.5,29.85,WNW,292,0.0,0.0,93,0.00,,,0.00,LWC V2.00 B2112,2013-02-27 13:10:00,
2013-02-27 08:20:00,44.4,42.5,29.85,WNW,292,0.0,0.0,93,0.00,,,0.00,LWC V2.00 B2112,2013-02-27 13:20:00,
2013-02-27 08:30:00,44.4,42.5,29.85,WNW,292,0.0,0.0,93,0.00,,,0.00,LWC V2.00 B2112,2013-02-27 13:30:00,
2013-02-27 08:40:00,44.4,42.5,29.85,WNW,292,0.0,0.0,93,0.00,,,0.00,LWC V2.00 B2112,2013-02-27 13:40:00,
2013-02-27 08:50:00,47.1,44.3,29.88,SE,135,0.0,0.0,90,0.00,,,0.00,LWC V2.00 B2112,2013-02-27 13:50:00,
2013-02-27 09:00:00,47.1,44.3,29.88,SE,135,0.0,0.0,90,0.00,,,0.00,LWC V2.00 B2112,2013-02-27 14:00:00,
2013-02-27 09:10:00,47.1,44.3,29.88,SE,135,0.0,0.0,90,0.00,,,0.00,LWC V2.00 B2112,2013-02-27 14:10:00,
2013-02-27 09:20:00,47.1,44.3,29.88,SE,135,0.0,0.0,90,0.00,,,0.00,LWC V2.00 B2112,2013-02-27 14:20:00,
2013-02-27 09:30:00,47.1,44.3,29.88,SE,135,0.0,0.0,90,0.00,,,0.00,LWC V2.00 B2112,2013-02-27 14:30:00,
2013-02-27 09:40:00,47.1,44.3,29.88,SE,135,0.0,0.0,90,0.00,,,0.00,LWC V2.00 B2112,2013-02-27 14:40:00,
2013-02-27 09:50:00,49.8,45.8,29.88,SSE,158,0.4,0.4,86,0.00,,,0.00,LWC V2.00 B2112,2013-02-27 14:50:00,
2013-02-27 10:00:00,49.8,45.8,29.88,SSE,158,0.4,0.4,86,0.00,,,0.00,LWC V2.00 B2112,2013-02-27 15:00:00,
2013-02-27 10:10:00,49.8,45.8,29.88,SSE,158,0.4,0.4,86,0.00,,,0.00,LWC V2.00 B2112,2013-02-27 15:10:00,
2013-02-27 10:20:00,49.8,45.8,29.88,SSE,158,0.4,0.4,86,0.00,,,0.00,LWC V2.00 B2112,2013-02-27 15:20:00,
2013-02-27 10:30:00,49.8,45.8,29.88,SSE,158,0.4,0.4,86,0.00,,,0.00,LWC V2.00 B2112,2013-02-27 15:30:00,
2013-02-27 10:40:00,49.8,45.8,29.88,SSE,158,0.4,0.4,86,0.00,,,0.00,LWC V2.00 B2112,2013-02-27 15:40:00,
2013-02-27 10:50:00,54.3,47.3,29.89,WSW,248,0.9,0.9,77,0.00,,,0.00,LWC V2.00 B2112,2013-02-27 15:50:00,
2013-02-27 11:00:00,54.3,47.3,29.89,WSW,248,0.9,0.9,77,0.00,,,0.00,LWC V2.00 B2112,2013-02-27 16:00:00,
2013-02-27 11:10:00,54.3,47.3,29.89,WSW,248,0.9,0.9,77,0.00,,,0.00,LWC V2.00 B2112,2013-02-27 16:10:00,
2013-02-27 11:20:00,54.3,47.3,29.89,WSW,248,0.9,0.9,77,0.00,,,0.00,LWC V2.00 B2112,2013-02-27 16:20:00,
2013-02-27 11:30:00,54.3,47.3,29.89,WSW,248,0.9,0.9,77,0.00,,,0.00,LWC V2.00 B2112,2013-02-27 16:30:00,
2013-02-27 11:40:00,54.3,47.3,29.89,WSW,248,0.9,0.9,77,0.00,,,0.00,LWC V2.00 B2112,2013-02-27 16:40:00,
2013-02-27 11:50:00,57.9,46.2,29.89,South,180,0.6,0.6,65,0.00,,,0.00,LWC V2.00 B2112,2013-02-27 16:50:00,
2013-02-27 12:00:00,57.9,46.2,29.89,South,180,0.6,0.6,65,0.00,,,0.00,LWC V2.00 B2112,2013-02-27 17:00:00,
2013-02-27 12:10:00,57.9,46.2,29.89,South,180,0.6,0.6,65,0.00,,,0.00,LWC V2.00 B2112,2013-02-27 17:10:00,
2013-02-27 12:20:00,57.9,46.2,29.89,South,180,0.6,0.6,65,0.00,,,0.00,LWC V2.00 B2112,2013-02-27 17:20:00,
2013-02-27 12:30:00,57.9,46.2,29.89,South,180,0.6,0.6,65,0.00,,,0.00,LWC V2.00 B2112,2013-02-27 17:30:00,
2013-02-27 12:40:00,57.9,46.2,29.89,South,180,0.6,0.6,65,0.00,,,0.00,LWC V2.00 B2112,2013-02-27 17:40:00,
2013-02-27 12:50:00,60.6,45.8,29.87,WSW,248,0.0,0.0,58,0.00,,,0.00,LWC V2.00 B2112,2013-02-27 17:50:00,
2013-02-27 13:00:00,60.6,45.8,29.87,WSW,248,0.0,0.0,58,0.00,,,0.00,LWC V2.00 B2112,2013-02-27 18:00:00,
2013-02-27 13:10:00,60.6,45.8,29.87,WSW,248,0.0,0.0,58,0.00,,,0.00,LWC V2.00 B2112,2013-02-27 18:10:00,
2013-02-27 13:20:00,60.6,45.8,29.87,WSW,248,0.0,0.0,58,0.00,,,0.00,LWC V2.00 B2112,2013-02-27 18:20:00,
2013-02-27 13:30:00,60.6,45.8,29.87,WSW,248,0.0,0.0,58,0.00,,,0.00,LWC V2.00 B2112,2013-02-27 18:30:00,
2013-02-27 13:40:00,60.6,45.8,29.87,WSW,248,0.0,0.0,58,0.00,,,0.00,LWC V2.00 B2112,2013-02-27 18:40:00,
2013-02-27 13:50:00,62.6,45.2,29.84,West,270,0.2,0.2,53,0.00,,,0.00,LWC V2.00 B2112,2013-02-27 18:50:00,
2013-02-27 14:00:00,62.6,45.2,29.84,West,270,0.2,0.2,53,0.00,,,0.00,LWC V2.00 B2112,2013-02-27 19:00:00,
2013-02-27 14:10:00,62.6,45.2,29.84,West,270,0.2,0.2,53,0.00,,,0.00,LWC V2.00 B2112,2013-02-27 19:10:00,
2013-02-27 14:20:00,62.6,45.2,29.84,West,270,0.2,0.2,53,0.00,,,0.00,LWC V2.00 B2112,2013-02-27 19:20:00,
2013-02-27 14:30:00,62.6,45.2,29.84,West,270,0.2,0.2,53,0.00,,,0.00,LWC V2.00 B2112,2013-02-27 19:30:00,
2013-02-27 14:40:00,62.6,45.2,29.84,West,270,0.2,0.2,53,0.00,,,0.00,LWC V2.00 B2112,2013-02-27 19:40:00,
2013-02-27 14:50:00,63.0,45.0,29.84,SSE,158,0.7,0.7,52,0.00,,,0.00,LWC V2.00 B2112,2013-02-27 19:50:00,
2013-02-27 15:00:00,63.0,45.0,29.84,SSE,158,0.7,0.7,52,0.00,,,0.00,LWC V2.00 B2112,2013-02-27 20:00:00,
2013-02-27 15:10:00,63.0,45.0,29.84,SSE,158,0.7,0.7,52,0.00,,,0.00,LWC V2.00 B2112,2013-02-27 20:10:00,
2013-02-27 15:20:00,63.0,45.0,29.84,SSE,158,0.7,0.7,52,0.00,,,0.00,LWC V2.00 B2112,2013-02-27 20:20:00,
2013-02-27 15:30:00,63.0,45.0,29.84,SSE,158,0.7,0.7,52,0.00,,,0.00,LWC V2.00 B2112,2013-02-27 20:30:00,
2013-02-27 15:40:00,63.0,45.0,29.84,SSE,158,0.7,0.7,52,0.00,,,0.00,LWC V2.00 B2112,2013-02-27 20:40:00,
2013-02-27 15:50:00,62.4,44.0,29.84,WSW,248,0.0,0.0,51,0.00,,,0.00,LWC V2.00 B2112,2013-02-27 20:50:00,
2013-02-27 16:00:00,62.4,44.0,29.84,WSW,248,0.0,0.0,51,0.00,,,0.00,LWC V2.00 B2112,2013-02-27 21:00:00,
2013-02-27 16:10:00,62.4,44.0,29.84,WSW,248,0.0,0.0,51,0.00,,,0.00,LWC V2.00 B2112,2013-02-27 21:10:00,
2013-02-27 16:20:00,62.4,44.0,29.84,WSW,248,0.0,0.0,51,0.00,,,0.00,LWC V2.00 B2112,2013-02-27 21:20:00,
2013-02-27 16:30:00,62.4,44.0,29.84,WSW,248,0.0,0.0,51,0.00,,,0.00,LWC V2.00 B2112,2013-02-27 21:30:00,
2013-02-27 16:40:00,62.4,44.0,29.84,WSW,248,0.0,0.0,51,0.00,,,0.00,LWC V2.00 B2112,2013-02-27 21:40:00,
2013-02-27 16:50:00,59.9,43.2,29.83,NW,315,0.0,0.0,54,0.00,,,0.00,LWC V2.00 B2112,2013-02-27 21:50:00,
2013-02-27 17:00:00,59.9,43.2,29.83,NW,315,0.0,0.0,54,0.00,,,0.00,LWC V2.00 B2112,2013-02-27 22:00:00,
2013-02-27 17:10:00,59.9,43.2,29.83,NW,315,0.0,0.0,54,0.00,,,0.00,LWC V2.00 B2112,2013-02-27 22:10:00,
2013-02-27 17:20:00,59.9,43.2,29.83,NW,315,0.0,0.0,54,0.00,,,0.00,LWC V2.00 B2112,2013-02-27 22:20:00,
2013-02-27 17:30:00,59.9,43.2,29.83,NW,315,0.0,0.0,54,0.00,,,0.00,LWC V2.00 B2112,2013-02-27 22:30:00,
2013-02-27 17:40:00,59.9,43.2,29.83,NW,315,0.0,0.0,54,0.00,,,0.00,LWC V2.00 B2112,2013-02-27 22:40:00,
2013-02-27 17:50:00,56.1,43.3,29.84,SW,225,0.3,0.3,62,0.00,,,0.00,LWC V2.00 B2112,2013-02-27 22:50:00,
2013-02-27 18:00:00,56.1,43.3,29.84,SW,225,0.3,0.3,62,0.00,,,0.00,LWC V2.00 B2112,2013-02-27 23:00:00,
2013-02-27 18:10:00,56.1,43.3,29.84,SW,225,0.3,0.3,62,0.00,,,0.00,LWC V2.00 B2112,2013-02-27 23:10:00,
2013-02-27 18:20:00,56.1,43.3,29.84,SW,225,0.3,0.3,62,0.00,,,0.00,LWC V2.00 B2112,2013-02-27 23:20:00,
2013-02-27 18:30:00,56.1,43.3,29.84,SW,225,0.3,0.3,62,0.00,,,0.00,LWC V2.00 B2112,2013-02-27 23:30:00,
2013-02-27 18:40:00,56.1,43.3,29.84,SW,225,0.3,0.3,62,0.00,,,0.00,LWC V2.00 B2112,2013-02-27 23:40:00,
2013-02-27 18:50:00,51.6,41.0,29.86,SSW,202,0.0,0.0,67,0.00,,,0.00,LWC V2.00 B2112,2013-02-27 23:50:00,
2013-02-27 19:00:00,51.6,41.0,29.86,SSW,202,0.0,0.0,67,0.00,,,0.00,LWC V2.00 B2112,2013-02-28 00:00:00,
2013-02-27 19:10:00,51.6,41.0,29.86,SSW,202,0.0,0.0,67,0.00,,,0.00,LWC V2.00 B2112,2013-02-28 00:10:00,
2013-02-27 19:20:00,51.6,41.0,29.86,SSW,202,0.0,0.0,67,0.00,,,0.00,LWC V2.00 B2112,2013-02-28 00:20:00,
2013-02-27 19:30:00,51.6,41.0,29.86,SSW,202,0.0,0.0,67,0.00,,,0.00,LWC V2.00 B2112,2013-02-28 00:30:00,
2013-02-27 19:40:00,51.6,41.0,29.86,SSW,202,0.0,0.0,67,0.00,,,0.00,LWC V2.00 B2112,2013-02-28 00:40:00,
2013-02-27 19:50:00,48.0,40.1,29.85,SSW,202,0.0,0.0,74,0.00,,,0.00,LWC V2.00 B2112,2013-02-28 00:50:00,
2013-02-27 20:00:00,48.0,40.1,29.85,SSW,202,0.0,0.0,74,0.00,,,0.00,LWC V2.00 B2112,2013-02-28 01:00:00,
2013-02-27 20:10:00,48.0,40.1,29.85,SSW,202,0.0,0.0,74,0.00,,,0.00,LWC V2.00 B2112,2013-02-28 01:10:00,
2013-02-27 20:20:00,48.0,40.1,29.85,SSW,202,0.0,0.0,74,0.00,,,0.00,LWC V2.00 B2112,2013-02-28 01:20:00,
2013-02-27 20:30:00,48.0,40.1,29.85,SSW,202,0.0,0.0,74,0.00,,,0.00,LWC V2.00 B2112,2013-02-28 01:30:00,
2013-02-27 20:40:00,48.0,40.1,29.85,SSW,202,0.0,0.0,74,0.00,,,0.00,LWC V2.00 B2112,2013-02-28 01:40:00,
2013-02-27 20:50:00,45.3,39.2,29.85,SSW,202,0.0,0.0,79,0.00,,,0.00,LWC V2.00 B2112,2013-02-28 01:50:00,
2013-02-27 21:00:00,45.3,39.2,29.85,SSW,202,0.0,0.0,79,0.00,,,0.00,LWC V2.00 B2112,2013-02-28 02:00:00,
2013-02-27 21:10:00,45.3,39.2,29.85,SSW,202,0.0,0.0,79,0.00,,,0.00,LWC V2.00 B2112,2013-02-28 02:10:00,
2013-02-27 21:20:00,45.3,39.2,29.85,SSW,202,0.0,0.0,79,0.00,,,0.00,LWC V2.00 B2112,2013-02-28 02:20:00,
2013-02-27 21:30:00,45.3,39.2,29.85,SSW,202,0.0,0.0,79,0.00,,,0.00,LWC V2.00 B2112,2013-02-28 02:30:00,
2013-02-27 21:40:00,45.3,39.2,29.85,SSW,202,0.0,0.0,79,0.00,,,0.00,LWC V2.00 B2112,2013-02-28 02:40:00,
2013-02-27 21:50:00,42.6,37.8,29.85,SSW,202,0.0,0.0,83,0.00,,,0.00,LWC V2.00 B2112,2013-02-28 02:50:00,
2013-02-27 22:00:00,42.6,37.8,29.85,SSW,202,0.0,0.0,83,0.00,,,0.00,LWC V2.00 B2112,2013-02-28 03:00:00,
2013-02-27 22:10:00,42.6,37.8,29.85,SSW,202,0.0,0.0,83,0.00,,,0.00,LWC V2.00 B2112,2013-02-28 03:10:00,
2013-02-27 22:20:00,42.6,37.8,29.85,SSW,202,0.0,0.0,83,0.00,,,0.00,LWC V2.00 B2112,2013-02-28 03:20:00,
2013-02-27 22:30:00,42.6,37.8,29.85,SSW,202,0.0,0.0,83,0.00,,,0.00,LWC V2.00 B2112,2013-02-28 03:30:00,
2013-02-27 22:40:00,42.6,37.8,29.85,SSW,202,0.0,0.0,83,0.00,,,0.00,LWC V2.00 B2112,2013-02-28 03:40:00,
2013-02-27 22:50:00,41.5,37.4,29.85,SSW,202,0.0,0.0,85,0.00,,,0.00,LWC V2.00 B2112,2013-02-28 03:50:00,
2013-02-27 23:00:00,41.5,37.4,29.85,SSW,202,0.0,0.0,85,0.00,,,0.00,LWC V2.00 B2112,2013-02-28 04:00:00,
2013-02-27 23:10:00,41.5,37.4,29.85,SSW,202,0.0,0.0,85,0.00,,,0.00,LWC V2.00 B2112,2013-02-28 04:10:00,
2013-02-27 23:20:00,41.5,37.4,29.85,SSW,202,0.0,0.0,85,0.00,,,0.00,LWC V2.00 B2112,2013-02-28 04:20:00,
2013-02-27 23:30:00,41.5,37.4,29.85,SSW,202,0.0,0.0,85,0.00,,,0.00,LWC V2.00 B2112,2013-02-28 04:30:00,
2013-02-27 23:40:00,41.5,37.4,29.85,SSW,202,0.0,0.0,85,0.00,,,0.00,LWC V2.00 B2112,2013-02-28 04:40:00,
2013-02-27 23:50:00,41.0,37.1,29.82,SSW,202,0.0,0.0,86,0.00,,,0.00,LWC V2.00 B2112,2013-02-28 04:50:00,